Flag for Dominican Republic Weather past 2 weeks in Punta Cana, Dominican Republic

Now
75 °F

Passing clouds.


Feels Like: 74 °F
Forecast: 77 / 87 °F
Wind: No wind

Location: Punta Cana

Current Time: May 5, 2015 at 4:20:25 AM

Latest Report: May 5, 2015 at 3:00 AM


Visibility: N/A

Pressure: 30.04 "Hg

Humidity: 94%

Dew point: 73 °F

Location of Punta CanaLocation

Historic Weather in Punta Cana — Graph

°F

Punta Cana temperature yesterday

Maximum temperature yesterday: 88 °F (at 12:00 PM)
Minimum temperature yesterday: 73 °F (at 12:00 AM)
Average temperature yesterday: 81 °F

Past Weeks' High & Low Weather Summary

 TemperatureHumidityPressure
High88 °F (Apr 24, 2:00 PM)100% (Apr 20, 5:00 AM)30.07 "Hg (Apr 20, 5:00 AM)
Low70 °F (Apr 25, 6:00 AM)58% (Apr 22, 10:00 AM)29.83 "Hg (Apr 29, 4:00 AM)
Average81 °F77%29.96 "Hg
* Reported Apr 20 3:00 AM — May 5 3:00 AM, Punta Cana, Weather by CustomWeather, © 2015

Note: Actual official high and low records may vary slightly from our data, if they occured in-between our weather recording intervals... More about our weather records

Advertising

Punta Cana weather history for previous 24 hours

 ConditionsComfort  
Time TempWeatherWind HumidityBarometerVisibility
3:00 AM
Tue, May 5
75 °FPassing clouds.No wind94%30.04 "HgN/A
2:00 AM73 °FPassing clouds.No wind94%30.07 "HgN/A
1:00 AM77 °FPassing clouds.No wind89%30.07 "HgN/A
12:00 AM77 °FPassing clouds.No wind89%30.07 "HgN/A
11:00 PM
Mon, May 4
79 °FPassing clouds.No wind89%30.07 "HgN/A
10:00 PM81 °FPassing clouds.No wind84%30.07 "HgN/A
9:00 PM81 °FPassing clouds.12 mph84%30.04 "HgN/A
8:00 PM81 °FPassing clouds.6 mph84%30.04 "HgN/A
7:00 PM82 °FPassing clouds.8 mph79%30.01 "HgN/A
6:00 PM84 °FPassing clouds.9 mph74%30.01 "HgN/A
5:00 PM84 °FScattered clouds.6 mph74%30.01 "HgN/A
4:00 PM86 °FPassing clouds.7 mph66%30.01 "HgN/A
3:00 PM88 °FPassing clouds.5 mph62%30.04 "HgN/A
2:00 PM88 °FPassing clouds.6 mph62%30.04 "HgN/A
1:00 PM88 °FPassing clouds.9 mph59%30.07 "HgN/A
12:00 PM88 °FPassing clouds.9 mph62%30.07 "HgN/A
11:00 AM86 °FPassing clouds.6 mph62%30.07 "HgN/A
10:00 AM86 °FPassing clouds.9 mph62%30.07 "HgN/A
9:00 AM82 °FPassing clouds.9 mph70%30.07 "HgN/A
8:00 AM81 °FPassing clouds.7 mph79%30.07 "HgN/A
7:00 AM79 °FPassing clouds.5 mph84%30.04 "HgN/A
6:00 AM77 °FPassing clouds.5 mph83%30.01 "HgN/A
5:00 AM77 °FPassing clouds.No wind83%29.98 "HgN/A
4:00 AM73 °FPassing clouds.No wind94%29.98 "HgN/A
Weather by CustomWeather, © 2015

See weather overviewHow to use our weather pages